Regional Weather Roundup
Issued by NWS Sioux Falls, SD

Home | Current Version | Previous Version | Graphics & Text | Print | Product List | Glossary Off
Versions: 1 2 3 4 5 6 7 8 9 10 11 12 13 14 15 16 17 18 19 20 21 22 23 24 25 26 27 28 29 30 31 32 33 34 35 36 37 38 39 40 41 42 43 44 45 46 47 48 49 50

317
ASUS43 KFSD 230610
RWRFSD

WEATHER ROUNDUP FOR SE SOUTH DAKOTA/SW MINNESOTA/NW IOWA
NATIONAL WEATHER SERVICE SIOUX FALLS SD
1200 AM CST THU FEB 23 2017

NOTE: "FAIR" INDICATES FEW OR NO CLOUDS BELOW 12,000 FEET WITH NO
SIGNIFICANT WEATHER AND OR OBSTRUCTIONS TO VISIBILITY.


SDZ038>040-050-052>070-230700-
SOUTHEAST SOUTH DAKOTA

CITY           SKY/WX    TMP DP  RH WIND       PRES   REMARKS
BROOKINGS      CLOUDY    30  28  93 N14       29.90R WCI  20
CHAMBERLAIN    CLOUDY    33  30  89 N10G17    29.94S WCI  25
6HR MIN TEMP:  33; 6HR MAX TEMP:  50;

HURON          CLOUDY    32  26  78 N14       29.95R WCI  22
6HR MIN TEMP:  32; 6HR MAX TEMP:  39;

MADISON        CLOUDY    32  32 100 N16       29.90R WCI  21
MITCHELL       CLOUDY    33  30  88 N16       29.94S WCI  23
6HR MIN TEMP:  33; 6HR MAX TEMP:  50;

SIOUX FALLS    CLOUDY    35  32  88 N12       29.90R WCI  27
6HR MIN TEMP:  35; 6HR MAX TEMP:  48;

WINNER         CLOUDY    34  31  88 NE14      29.93R WCI  25
YANKTON        CLOUDY    37  32  81 N15G28    29.86F
$$

MNZ071-072-080-081-089-090-097-098-230700-
SOUTHWEST MINNESOTA

CITY           SKY/WX    TMP DP  RH WIND       PRES   REMARKS
FAIRMONT       CLOUDY    36  34  92 NW16      29.82R
JACKSON          N/A     34  32  93 NW21G28   29.83F WCI  22
LUVERNE        CLOUDY    34  30  86 N14       29.88S WCI  24
MARSHALL       CLOUDY    32  30  92 N15       29.89R WCI  22
6HR MIN TEMP:  32; 6HR MAX TEMP:  40;

MONTEVIDEO     CLOUDY    34  30  86 N13G20    29.91R WCI  25
PIPESTONE      CLOUDY    34  28  80 N13G18    29.87R WCI  25
REDWOOD FALLS  CLOUDY    36  31  82 NW10G18   29.86R
TRACY          CLOUDY    33  32  96 N15       29.88R WCI  23
WINDOM         CLOUDY    36  34  93 NW17      29.85R
WORTHINGTON    CLOUDY    33  32  96 N18       29.86S WCI  22
$$

IAZ001>003-012>014-020>022-031-032-NEZ013-014-SDZ071-230700-
NORTHWEST IOWA

CITY           SKY/WX    TMP DP  RH WIND       PRES   REMARKS
CHEROKEE       PTCLDY    37  36  95 N6        29.84R
DENISON        CLEAR     41  39  93 NE8G15    29.77F
ESTHERVILLE    CLOUDY    35  34  96 N22       29.82R WCI  23
LE MARS        CLOUDY    37  36  93 N8        29.86R
ORANGE CITY    CLOUDY    36  36 100 N13G20    29.83S
SHELDON        CLOUDY    34  34 100 N21       29.82F WCI  22
SIOUX CITY     CLOUDY    44  37  76 N17       29.82S
6HR MIN TEMP:  44; 6HR MAX TEMP:  59;

SPENCER        CLOUDY    36  33  89 N20       29.83S
6HR MIN TEMP:  36; 6HR MAX TEMP:  52;

STORM LAKE     CLOUDY    37  36  93 N17       29.82R
$$

ABBREVIATIONS USED IN REMARKS
   TC - TEMPERATURE IN CELSIUS
  WCI - WIND CHILL INDEX
   HX - HEAT INDEX
  VSB - VISIBILITY





USA.gov is the U.S. government's official web portal to all federal, state and local government web resources and services.